DW6267 Weather Reports


time (UTC)temp
F
wind
direction
speed
knots
gust
knots
rain 1hr
in
rain 24hr
in
rain mn
in
humidity
%
barometer
mb
20260506190346 69 311 3.5 0.0 0.00 0.00 0.00 45 1012.5
20260506180346 68 256 3.5 0.0 0.00 0.00 0.00 47 1012.6
20260506170348 68 300 3.5 0.0 0.00 0.00 0.00 49 1012.3
20260506160349 66 284 4.3 0.0 0.00 0.00 0.00 52 1013.6
20260506150331 60 17 1.7 0.0 0.00 0.00 0.00 61 1013.1
20260506140351 42 347 0.0 0.0 0.00 0.00 0.00 92 1013.4
20260506130340 41 346 0.0 0.0 0.00 0.00 0.00 93 1013.5
20260506120347 42 346 0.0 0.0 0.00 0.00 0.00 92 1012.5
20260506110346 43 17 0.0 0.0 0.00 0.00 0.00 90 1012.8
20260506100346 44 17 0.0 0.0 0.00 0.00 0.00 91 1012.5
20260506090343 46 17 0.0 0.0 0.00 0.00 0.00 85 1012.3
20260506080404 45 250 0.0 0.0 0.00 0.00 0.00 84 1012.3
20260506070337 46 250 0.0 0.0 0.00 0.00 0.00 85 1012.0
20260506060343 47 250 0.0 0.0 0.00 0.00 0.00 82 1012.0
20260506050344 50 250 0.0 0.0 0.00 0.00 0.00 79 1010.9
20260506040347 51 250 0.0 0.0 0.00 0.00 0.00 76 1010.4
20260506030350 54 250 0.0 0.0 0.00 0.00 0.00 72 1010.1
20260506020337 59 250 0.0 0.0 0.00 0.00 0.00 63 1009.9
20260506010334 69 283 0.0 0.0 0.00 0.00 0.00 42 1009.6
20260506000349 75 332 0.0 0.0 0.00 0.00 0.00 32 1009.2
20260505230359 75 202 1.7 0.0 0.00 0.00 0.00 30 1009.3
20260505220343 77 170 0.0 0.0 0.00 0.00 0.00 25 1010.3
20260505210408 77 265 0.9 0.0 0.00 0.00 0.00 25 1010.4
20260505200352 76 360 2.6 0.0 0.00 0.00 0.00 27 1010.6